Home   Weather   Township of Fairfield   Past weeks
Flag for USA

Past Weather in Township of Fairfield, Minnesota, USA — Yesterday and Last 2 Weeks

Now
3 °F

Light snow. Mostly cloudy.


Feels Like: -13 °F
Forecast: 8 / -5 °F
Wind: 10 mph from North

Location: Bemidji-Beltrami County Airport

Current Time: Dec 9, 2019 at 6:49:52 am

Latest Report: Dec 9, 2019 at 5:55 am


Visibility: 4 mi

Pressure: 29.83 "Hg

Humidity: 80%

Dew Point: -2 °F

Location of Township of FairfieldLocation

Past Weather in Township of Fairfield — Graph

°F

Township of Fairfield Temperature Yesterday

Maximum temperature yesterday: 31 °F (at 12:36 am)
Minimum temperature yesterday: 7 °F (at 11:55 pm)
Average temperature yesterday: 20 °F

High & Low Weather Summary for the Past Weeks

 TemperatureHumidityPressure
High39 °F (Nov 24, 1:36 pm)100% (Nov 26, 7:55 am)30.53 "Hg (Nov 26, 7:55 am)
Low-7 °F (Dec 2, 4:15 am)46% (Dec 2, 1:55 pm)29.24 "Hg (Nov 25, 5:15 am)
Average23 °F86%29.89 "Hg
* Reported Nov 24 5:16 am — Dec 9 5:35 am, Township of Fairfield. Weather by CustomWeather, © 2019

Note: Actual official high and low records may vary slightly from our data, if they occured in-between our weather recording intervals... More about our weather records

Township of Fairfield Weather History for the Previous 24 Hours

Scroll right to see more
 ConditionsComfort  
Time TempWeatherWind HumidityBarometerVisibility
5:35 am
Mon, Dec 9
3 °FLight snow. Overcast.9 mph81%29.83 "Hg4 mi
5:16 am3 °FLight snow. Overcast.12 mph81%29.83 "Hg4 mi
4:55 am3 °FLight snow. Mostly cloudy.10 mph81%29.83 "Hg2 mi
4:36 am3 °FLight snow. Overcast.8 mph83%29.83 "Hg1 mi
4:16 am4 °FLight snow. Overcast.9 mph82%29.84 "Hg2 mi
3:55 am4 °FLight snow. Overcast.8 mph83%29.83 "Hg3 mi
3:35 am4 °FLight snow. Overcast.10 mph82%29.83 "Hg2 mi
3:15 am4 °FLight snow. Overcast.8 mph83%29.83 "Hg2 mi
2:55 am4 °FLight snow. Overcast.9 mph83%29.84 "Hg2 mi
2:35 am5 °FLight snow. Overcast.8 mph83%29.84 "Hg2 mi
2:16 am5 °FLight snow. Overcast.8 mph82%29.84 "Hg2 mi
1:56 am5 °FLight snow. Overcast.8 mph82%29.84 "Hg1 mi
1:35 am5 °FLight snow. Low clouds.10 mph84%29.84 "Hg1 mi
12:56 am6 °FLight snow. Low clouds.9 mph85%29.86 "Hg1 mi
12:35 am6 °FLight snow. Low clouds.7 mph84%29.87 "Hg1 mi
12:16 am6 °FSnow. Low clouds.10 mph85%29.86 "Hg1 mi
11:55 pm
Sun, Dec 8
7 °FSnow. Low clouds.12 mph86%29.84 "Hg1 mi
11:35 pm7 °FSnow. Low clouds.9 mph85%29.85 "Hg1 mi
11:16 pm8 °FSnow. Low clouds.13 mph86%29.86 "Hg1 mi
10:55 pm8 °FLight snow. Low clouds.8 mph87%29.87 "Hg1 mi
10:36 pm9 °FSnow. Low clouds.7 mph88%29.87 "Hg1 mi
10:15 pm9 °FSnow. Low clouds.13 mph86%29.87 "Hg1 mi
9:55 pm10 °FSnow. Low clouds.9 mph87%29.87 "Hg1 mi
9:35 pm10 °FLight snow. Overcast.8 mph86%29.87 "Hg1 mi
9:15 pm10 °FLight snow. Overcast.10 mph85%29.87 "Hg2 mi
8:55 pm11 °FLight snow. Mostly cloudy.9 mph85%29.88 "Hg1 mi
8:35 pm12 °FLight snow. Overcast.12 mph84%29.88 "Hg2 mi
8:15 pm12 °FLight snow. Overcast.12 mph82%29.88 "Hg2 mi
7:56 pm13 °FLight snow. Mostly cloudy.13 mph79%29.88 "Hg2 mi
7:36 pm15 °FLight snow. Overcast.7 mph76%29.87 "Hg3 mi
7:15 pm15 °FLight snow. Mostly cloudy.10 mph74%29.86 "Hg3 mi
6:55 pm15 °FLight snow. Overcast.9 mph74%29.86 "Hg10 mi
6:36 pm15 °FLight snow. Mostly cloudy.8 mph77%29.87 "Hg5 mi
5:55 pm16 °FMostly cloudy.8 mph77%29.86 "Hg10 mi
5:35 pm15 °FLight snow. Mostly cloudy.8 mph77%29.84 "Hg7 mi
5:15 pm16 °FOvercast.8 mph75%29.83 "Hg10 mi
4:55 pm16 °FOvercast.8 mph75%29.84 "Hg10 mi
4:35 pm17 °FOvercast.9 mph75%29.82 "Hg10 mi
4:15 pm17 °FOvercast.9 mph76%29.83 "Hg10 mi
3:56 pm16 °FOvercast.7 mph79%29.84 "Hg10 mi
3:35 pm17 °FOvercast.8 mph82%29.85 "Hg10 mi
3:16 pm16 °FOvercast.6 mph81%29.86 "Hg10 mi
2:56 pm17 °FOvercast.8 mph82%29.85 "Hg10 mi
2:35 pm17 °FOvercast.7 mph82%29.83 "Hg10 mi
2:16 pm17 °FOvercast.12 mph85%29.83 "Hg10 mi
1:55 pm17 °FOvercast.10 mph84%29.84 "Hg10 mi
1:35 pm17 °FOvercast.13 mph83%29.83 "Hg10 mi
1:15 pm17 °FLow clouds.13 mph86%29.83 "Hg10 mi
12:56 pm17 °FLow clouds.12 mph86%29.85 "Hg10 mi
12:35 pm17 °FLow clouds.13 mph87%29.84 "Hg10 mi
11:55 am18 °FLow clouds.13 mph88%29.83 "Hg10 mi
11:35 am19 °FLow clouds.12 mph89%29.85 "Hg10 mi
11:15 am20 °FLow clouds.12 mph90%29.84 "Hg10 mi
10:55 am21 °FLow clouds.13 mph88%29.85 "Hg10 mi
10:35 am21 °FLow clouds.14 mph89%29.85 "Hg10 mi
10:15 am22 °FLight snow. Low clouds.13 mph89%29.84 "Hg10 mi
9:55 am24 °FLight snow. Low clouds.13 mph87%29.83 "Hg7 mi
9:35 am25 °FLow clouds.12 mph90%29.82 "Hg10 mi
9:15 am26 °FLow clouds.10 mph90%29.80 "Hg10 mi
8:36 am26 °FLow clouds.16 mph94%29.78 "Hg7 mi
8:15 am27 °FOvercast.14 mph90%29.76 "Hg10 mi
7:55 am28 °FOvercast.9 mph86%29.75 "Hg10 mi
7:36 am28 °FOvercast.12 mph86%29.74 "Hg10 mi
7:15 am28 °FOvercast.10 mph89%29.74 "Hg10 mi
6:56 am28 °FLow clouds.10 mph91%29.74 "Hg7 mi
6:35 am28 °FOvercast.15 mph90%29.73 "Hg10 mi
6:16 am28 °FOvercast.14 mph88%29.72 "Hg10 mi
Weather by CustomWeather, © 2019

See weather overview

Advertising